This is the latest recevied weather packets stored in our database for station/object KC8PTQ. If no packets are shown the sender has not sent any weather packets the latest 1 day(s).
| Time | Temp. | Humidity | Pressure | Rain* | Wind** | Luminosity | Snow |
|---|---|---|---|---|---|---|---|
| 1778030182 | 10.56° C | 99% | 1009.4 hPa | 8.89 mm | 0 m/s | 0 W/m² | - |
| 1778029878 | 10.56° C | 99% | 1009.7 hPa | 8.89 mm | 0 m/s | 0 W/m² | - |
| 1778029577 | 10.56° C | 99% | 1009.3 hPa | 10.16 mm | 0 m/s | 0 W/m² | - |
| 1778029268 | 10.56° C | 99% | 1009 hPa | 10.67 mm | 0 m/s | 0 W/m² | - |
| 1778028965 | 10.56° C | 99% | 1009.4 hPa | 9.65 mm | 0 m/s | 0 W/m² | - |
| 1778028662 | 10.56° C | 99% | 1009.4 hPa | 7.87 mm | 0.89 m/s, 22° | 0 W/m² | - |
| 1778028359 | 10.56° C | 99% | 1009.1 hPa | 8.89 mm | 0 m/s | 0 W/m² | - |
| 1778028055 | 10.56° C | 99% | 1009.1 hPa | 7.11 mm | 0 m/s | 0 W/m² | - |
| 1778027751 | 10° C | 99% | 1008.9 hPa | 6.1 mm | 0 m/s | 0 W/m² | - |
| 1778027448 | 10° C | 99% | 1008.8 hPa | 4.83 mm | 0 m/s | 0 W/m² | - |
| 1778027144 | 10.56° C | 99% | 1008.9 hPa | 4.83 mm | 0 m/s | 0 W/m² | - |
| 1778026840 | 10° C | 99% | 1008.7 hPa | 6.1 mm | 0 m/s | 0 W/m² | - |
| 1778026536 | 10.56° C | 99% | 1008.9 hPa | 6.1 mm | 0 m/s | 1 W/m² | - |
| 1778026234 | 10.56° C | 99% | 1009 hPa | 4.83 mm | 0.45 m/s, 339° | 1 W/m² | - |
| 1778025931 | 10.56° C | 99% | 1009 hPa | 3.05 mm | 0 m/s | 1 W/m² | - |
| 1778025628 | 10.56° C | 99% | 1008.8 hPa | 3.05 mm | 0 m/s | 2 W/m² | - |
| 1778025326 | 10.56° C | 99% | 1008.9 hPa | 3.05 mm | 1.79 m/s, 36° | 4 W/m² | - |
| 1778025023 | 11.11° C | 99% | 1009 hPa | 0 mm | 0 m/s | 3 W/m² | - |
| 1778024720 | 11.11° C | 99% | 1009 hPa | 0 mm | 0.89 m/s, 8° | 4 W/m² | - |
| 1778024417 | 11.67° C | 99% | 1009 hPa | 0 mm | 0 m/s | 3 W/m² | - |
| 1778024114 | 12.78° C | 99% | 1009.1 hPa | 1.27 mm | 0 m/s | 3 W/m² | - |
| 1778023811 | 13.33° C | 99% | 1009.2 hPa | 1.27 mm | 0 m/s | 3 W/m² | - |
| 1778023509 | 13.33° C | 99% | 1009.1 hPa | 0 mm | 0 m/s | 6 W/m² | - |
| 1778023206 | 13.33° C | 99% | 1009 hPa | 1.78 mm | 0 m/s | 7 W/m² | - |
| 1778022903 | 13.33° C | 99% | 1009.1 hPa | 3.05 mm | 0 m/s | 7 W/m² | - |
* Rain latest hour (hover to see other rain measurements)
** Current wind speed in m/s (hover to see current wind gust speed)